Location: Vesunti
(61.5000°N, 22.8333°E)
Time: 10:38:09
(UTC+00:00)

Cosmos 2100 Rocket - Pass Details

Date: 17 February 2020
Orbit: 955 x 1002 km, 82.9° (Epoch: 04 April)

Event Time Altitude Azimuth Distance (km) Brightness Sun altitude
Rises 03:03:25 0° 344° (NNW) 3,709 7.1 -22.4°
Reaches altitude 10° 03:05:59 10° 347° (NNW) 2,750 6.4 -22.1°
Maximum altitude 03:12:16 69° 71° (ENE) 1,044 4.3 -21.4°
Drops below altitude 10° 03:18:27 10° 155° (SSE) 2,703 6.5 -20.7°
Sets 03:20:57 0° 158° (SSE) 3,640 7.1 -20.4°
